Portada
METAR-TAF:

METAR-TAF

Aeropuertos :

Villavicencio, Colombia

Aeropuerto Vanguardia

latitud: 04-10N, longitud: 073-37W, altitud: 423 m

Observación

El informe se hizo hace 1 hora y 10 minutos, a las 22:00 UTC
Viento 2 kt con dirección variable
Temperatura 26°C
Humedad 79%
Presión 1011 hPa
Visibilidad: 9000 m
Nubes dispersas a una altura de 2000 ft
Cielo nuboso a una altura de 9000 ft
llovizna ligera

METAR: SKVV 212200Z VRB02KT 9000 -DZ SCT020 BKN090 26/22 A2984

Hora: 18:10 (23:10 UTC)


TAF: falta

Observaciones y pronósticos meteorológicos de más de 4000 aeropuertos (mensajes METAR y TAF).

Los puntos amarillos y rojos representan las estaciones disponibles.

Ponga el ratón en el punto deseado para ver el nombre de la estación.

Haga clic para ver las observaciones y los pronósticos meteorológicos.

Para cambiar el mapa : haga clic en los botones verdes con una cruz de color negro para hacer un zoom, en el botón verde con un guión para alejar o en las flechas verdes para mapas adyacentes.


METAR-TAF: